Las Vegas, NV

2:55 AM PDT on August 30, 2016 (GMT -0700)
Nellis AFB

Weather History for KLSV - April, 2013

Change the Weather History Date:

Wednesday, April 17, 2013

  Actual Average Record
Temperature  
Mean Temperature 56 °F -  
Max Temperature 64 °F 75 °F 91 °F (1997)
Min Temperature 48 °F 52 °F 39 °F (1998)
Degree Days  
Heating Degree Days 10    
Growing Degree Days 6 (Base 50)    
Moisture  
Dew Point 17 °F    
Average Humidity 22    
Maximum Humidity 38    
Minimum Humidity 11    
Precipitation  
Precipitation 0.00 in - - ()
Sea Level Pressure  
Sea Level Pressure 30.03 in    
Wind  
Wind Speed 12 mph (North)    
Max Wind Speed 21 mph    
Max Gust Speed 30 mph    
Visibility 10 miles    
Events      
Averages and records for this station are not official NWS values.
T = Trace of Precipitation, MM = Missing Value Source: NWS Daily Summary

Daily Weather History Graph

Daily Weather History Graph

Search for Another Location

Airport or City:

Trip Planner

Search our weather history database for the weather conditions in past years. The results will help you decide how hot, cold, wet, or windy it might be!

Date:

Astronomy

Apr. 17, 2013 Rise Set
Actual Time 6:03 AM PDT 7:16 PM PDT
Civil Twilight 5:37 AM PDT 7:42 PM PDT
Nautical Twilight 5:05 AM PDT 8:14 PM PDT
Astronomical Twilight 4:32 AM PDT 8:47 PM PDT
Moon 11:24 AM PDT (4/17) 12:53 AM PDT (4/17)
Length of Visible Light 14h 05m
Length of Day
13h 12m
Waxing Crescent, 43% of the Moon is Illuminated
Apr 17
Waxing Crescent
Apr 18
First Quarter
Apr 25
Full
May 2
Last Quarter
May 9
New

Hourly Weather History & Observations

Time (PDT) Temp. Dew Point Humidity Pressure Visibility Wind Dir Wind Speed Gust Speed Precip Events Conditions
12:58 AM 51.4 °F 25.0 °F 36% 29.90 in - East 2.3 mph - N/A   Clear
1:58 AM 48.7 °F 24.3 °F 38% 29.90 in - East 2.3 mph - N/A   Clear
2:58 AM 49.5 °F 23.4 °F 36% 29.90 in - Variable 1.2 mph - N/A   Clear
3:58 AM 51.6 °F 22.1 °F 32% 29.91 in - NNW 5.8 mph - N/A   Clear
4:58 AM 50.7 °F 20.7 °F 31% 29.93 in - NW 12.7 mph - N/A   Partly Cloudy
5:58 AM 50.2 °F 20.7 °F 31% 29.94 in - WNW 18.4 mph 23.0 mph N/A   Scattered Clouds
6:31 AM 50.0 °F 21.2 °F 32% 29.97 in 10.0 mi WNW 19.6 mph 25.3 mph N/A   Partly Cloudy
6:59 AM 51.8 °F 21.2 °F 30% 30.00 in 10.0 mi WNW 19.6 mph 27.6 mph N/A   Overcast
7:58 AM 52.0 °F 20.3 °F 29% 30.02 in 10.0 mi WNW 20.7 mph - N/A   Partly Cloudy
8:39 AM 51.8 °F 21.2 °F 30% 30.04 in 10.0 mi SW 18.4 mph 23.0 mph N/A   Clear
8:58 AM 53.4 °F 20.5 °F 28% 30.03 in 10.0 mi WSW 16.1 mph 19.6 mph N/A   Clear
9:21 AM 57.2 °F 19.4 °F 23% 30.04 in 10.0 mi NNW 13.8 mph 18.4 mph N/A   Clear
9:58 AM 57.6 °F 19.4 °F 23% 30.03 in 10.0 mi NNE 16.1 mph 21.9 mph N/A   Partly Cloudy
10:17 AM 59.0 °F 19.4 °F 22% 30.05 in 10.0 mi North 20.7 mph 21.9 mph N/A   Partly Cloudy
10:18 AM 59.0 °F 19.4 °F 22% 30.05 in 10.0 mi NNW 20.7 mph - N/A   Partly Cloudy
10:23 AM 59.0 °F 19.4 °F 22% 30.05 in 10.0 mi North 12.7 mph 21.9 mph N/A   Scattered Clouds
10:32 AM 59.0 °F 19.4 °F 22% 30.06 in 10.0 mi NW 15.0 mph 19.6 mph N/A   Mostly Cloudy
10:34 AM 59.0 °F 19.4 °F 22% 30.06 in 10.0 mi WNW 12.7 mph 19.6 mph N/A   Mostly Cloudy
10:43 AM 59.0 °F 19.4 °F 22% 30.06 in 10.0 mi NW 13.8 mph - N/A   Mostly Cloudy
10:58 AM 60.1 °F 18.0 °F 20% 30.04 in 10.0 mi NNE 15.0 mph 25.3 mph N/A   Mostly Cloudy
11:16 AM 60.8 °F 15.8 °F 17% 30.06 in 10.0 mi North 16.1 mph 25.3 mph N/A   Scattered Clouds
11:20 AM 60.8 °F 15.8 °F 17% 30.06 in 10.0 mi NNE 15.0 mph 25.3 mph N/A   Scattered Clouds
11:23 AM 60.8 °F 17.6 °F 19% 30.06 in 10.0 mi NE 13.8 mph 25.3 mph N/A   Scattered Clouds
11:58 AM 59.5 °F 14.9 °F 17% 30.05 in 10.0 mi NNE 17.3 mph 20.7 mph N/A   Mostly Cloudy
12:52 PM 60.8 °F 15.8 °F 17% 30.03 in 10.0 mi North 11.5 mph 21.9 mph N/A   Mostly Cloudy
12:54 PM 60.8 °F 15.8 °F 17% 30.04 in 10.0 mi West 17.3 mph 21.9 mph N/A   Mostly Cloudy
12:58 PM 60.1 °F 15.4 °F 18% 30.02 in 10.0 mi NW 10.4 mph 21.9 mph N/A   Mostly Cloudy
1:58 PM 60.8 °F 14.5 °F 16% 30.03 in 10.0 mi ENE 6.9 mph - N/A   Overcast
2:55 PM 62.6 °F 8.6 °F 12% 30.03 in 10.0 mi North 13.8 mph 21.9 mph N/A   Overcast
2:58 PM 62.8 °F 8.1 °F 12% 30.00 in 10.0 mi North 17.3 mph - N/A   Overcast
3:06 PM 62.6 °F 8.6 °F 12% 30.02 in 10.0 mi NNE 16.1 mph 21.9 mph N/A   Mostly Cloudy
3:30 PM 62.6 °F 8.6 °F 12% 30.02 in 10.0 mi NNE 15.0 mph 19.6 mph N/A   Mostly Cloudy
3:58 PM 63.5 °F 8.2 °F 11% 30.00 in 10.0 mi NE 13.8 mph - N/A   Scattered Clouds
4:58 PM 62.6 °F 7.5 °F 11% 30.00 in 10.0 mi NE 13.8 mph 23.0 mph N/A   Partly Cloudy
5:58 PM 62.8 °F 7.7 °F 11% 30.02 in 10.0 mi NNE 16.1 mph 21.9 mph N/A   Scattered Clouds
6:58 PM 60.3 °F 16.9 °F 19% 30.03 in 10.0 mi NE 16.1 mph - N/A   Mostly Cloudy
7:58 PM 59.0 °F 19.0 °F 21% 30.11 in 10.0 mi North 15.0 mph - N/A   Clear
8:58 PM 55.8 °F 20.7 °F 26% 30.11 in - NE 20.7 mph 29.9 mph N/A   Clear
9:58 PM 54.5 °F 20.8 °F 27% 30.13 in - NE 18.4 mph - N/A   Clear
10:58 PM 53.2 °F 21.2 °F 29% 30.15 in - NE 11.5 mph - N/A   Clear
11:58 PM 53.8 °F 20.1 °F 27% 30.19 in - North 3.5 mph - N/A   Clear